Inverness, FL

11:17 AM EDT on August 24, 2016 (GMT -0400)
Inverness

Weather History for KINF - October, 2012

Change the Weather History Date:

Sunday, October 14, 2012

  Actual Average (KOCF) Record (KOCF)
Temperature  
Mean Temperature 76 °F -  
Max Temperature 89 °F 80 °F 89 °F (1997)
Min Temperature 64 °F 59 °F 53 °F (2004)
Cooling Degree Days 12    
Growing Degree Days 26 (Base 50)    
Moisture  
Dew Point 67 °F    
Average Humidity 76    
Maximum Humidity 100    
Minimum Humidity 46    
Precipitation  
Precipitation 0.00 in - - ()
Sea Level Pressure  
Sea Level Pressure 30.08 in    
Wind  
Wind Speed 3 mph ()    
Max Wind Speed 9 mph    
Max Gust Speed 16 mph    
Averages and records for this station are not official NWS values.
T = Trace of Precipitation, MM = Missing Value Source: Averaged Metar Reports

Daily Weather History Graph

Daily Weather History Graph

Search for Another Location

Airport or City:

Trip Planner

Search our weather history database for the weather conditions in past years. The results will help you decide how hot, cold, wet, or windy it might be!

Date:

Astronomy

Oct. 14, 2012 Rise Set
Actual Time 7:29 AM EDT 6:59 PM EDT
Civil Twilight 7:06 AM EDT 7:23 PM EDT
Nautical Twilight 6:38 AM EDT 7:51 PM EDT
Astronomical Twilight 6:11 AM EDT 8:18 PM EDT
Moon 6:29 AM EDT (10/14) 6:20 PM EDT (10/14)
Length of Visible Light 12h 17m
Length of Day
11h 29m
Waning Crescent, 1% of the Moon is Illuminated
Oct 14
Waning Crescent
Oct 15
New
Oct 21
First Quarter
Oct 29
Full
Nov 6
Last Quarter

Hourly Weather History & Observations

Time (EDT) Temp. Heat Index Dew Point Humidity Pressure Visibility Wind Dir Wind Speed Gust Speed Precip Events Conditions
12:15 AM 68.0 °F - 66.2 °F 94% 30.16 in - NNE 4.6 mph - N/A   Unknown
12:35 AM 68.0 °F - 66.2 °F 94% 30.16 in - NNE 3.5 mph - N/A   Unknown
1:15 AM 68.0 °F - 66.2 °F 94% 30.15 in - NNE 3.5 mph - N/A   Unknown
1:35 AM 68.0 °F - 66.2 °F 94% 30.15 in - Calm Calm - N/A   Unknown
1:55 AM 68.0 °F - 66.2 °F 94% 30.14 in - NNE 3.5 mph - N/A   Unknown
2:15 AM 68.0 °F - 66.2 °F 94% 30.14 in - NE 3.5 mph - N/A   Unknown
2:35 AM 68.0 °F - 66.2 °F 94% 30.13 in - NNE 4.6 mph - N/A   Unknown
2:55 AM 68.0 °F - 66.2 °F 94% 30.13 in - NE 3.5 mph - N/A   Unknown
3:35 AM 68.0 °F - 66.2 °F 94% 30.11 in - NE 3.5 mph - N/A   Unknown
3:55 AM 68.0 °F - 64.4 °F 88% 30.11 in - Calm Calm - N/A   Unknown
4:15 AM 68.0 °F - 66.2 °F 94% 30.11 in - Calm Calm - N/A   Unknown
4:35 AM 66.2 °F - 66.2 °F 100% 30.11 in - Calm Calm - N/A   Unknown
4:55 AM 66.2 °F - 64.4 °F 94% 30.11 in - Calm Calm - N/A   Unknown
5:15 AM 64.4 °F - 64.4 °F 100% 30.10 in - Calm Calm - N/A   Unknown
5:35 AM 66.2 °F - 64.4 °F 94% 30.10 in - Calm Calm - N/A   Unknown
5:55 AM 66.2 °F - 66.2 °F 100% 30.11 in - North 3.5 mph - N/A   Unknown
6:15 AM 66.2 °F - 66.2 °F 100% 30.11 in - North 3.5 mph - N/A   Unknown
6:35 AM 66.2 °F - 64.4 °F 94% 30.11 in - NNE 3.5 mph - N/A   Unknown
7:15 AM 66.2 °F - 64.4 °F 94% 30.11 in - Calm Calm - N/A   Unknown
7:35 AM 64.4 °F - 64.4 °F 100% 30.12 in - Calm Calm - N/A   Unknown
7:55 AM 66.2 °F - 64.4 °F 94% 30.12 in - Calm Calm - N/A   Unknown
8:15 AM 68.0 °F - 68.0 °F 100% 30.13 in - Calm Calm - N/A   Unknown
8:35 AM 69.8 °F - 68.0 °F 94% 30.13 in - NNE 3.5 mph - N/A   Unknown
8:55 AM 71.6 °F - 68.0 °F 88% 30.13 in - NE 3.5 mph - N/A   Unknown
9:15 AM 71.6 °F - 68.0 °F 88% 30.13 in - NE 4.6 mph - N/A   Clear
9:35 AM 73.4 °F - 68.0 °F 83% 30.14 in - ENE 3.5 mph - N/A   Clear
9:55 AM 77.0 °F - 68.0 °F 74% 30.14 in - NE 6.9 mph - N/A   Clear
10:15 AM 78.8 °F - 68.0 °F 69% 30.14 in - NE 5.8 mph - N/A   Clear
10:35 AM 80.6 °F 83.2 °F 68.0 °F 65% 30.14 in - ENE 5.8 mph - N/A   Clear
10:55 AM 82.4 °F 85.4 °F 68.0 °F 62% 30.13 in - East 4.6 mph - N/A   Clear
11:15 AM 82.4 °F 85.4 °F 68.0 °F 62% 30.13 in - ESE 6.9 mph - N/A   Clear
11:35 AM 82.4 °F 85.4 °F 68.0 °F 62% 30.12 in - ESE 6.9 mph - N/A   Clear
11:55 AM 84.2 °F 86.6 °F 66.2 °F 55% 30.12 in - East 6.9 mph - N/A   Scattered Clouds
12:15 PM 86.0 °F 88.2 °F 66.2 °F 51% 30.11 in - ESE 8.1 mph - N/A   Scattered Clouds
12:35 PM 86.0 °F 88.2 °F 66.2 °F 51% 30.10 in - East 9.2 mph - N/A   Scattered Clouds
12:55 PM 86.0 °F 88.2 °F 66.2 °F 51% 30.10 in - East 9.2 mph 16.1 mph N/A   Scattered Clouds
1:15 PM 87.8 °F 90.4 °F 66.2 °F 49% 30.09 in - ESE 5.8 mph - N/A   Scattered Clouds
1:35 PM 87.8 °F 90.4 °F 66.2 °F 49% 30.08 in - East 9.2 mph - N/A   Scattered Clouds
1:55 PM 86.0 °F 89.4 °F 68.0 °F 55% 30.07 in - Calm Calm - N/A   Mostly Cloudy
2:15 PM 87.8 °F 90.4 °F 66.2 °F 49% 30.06 in - NE 8.1 mph - N/A   Scattered Clouds
2:35 PM 87.8 °F 90.4 °F 66.2 °F 49% 30.06 in - ENE 3.5 mph - N/A   Scattered Clouds
2:55 PM 87.8 °F 90.4 °F 66.2 °F 49% 30.05 in - East 6.9 mph - N/A   Scattered Clouds
3:15 PM 87.8 °F 89.4 °F 64.4 °F 46% 30.05 in - ENE 4.6 mph - N/A   Scattered Clouds
3:35 PM 89.6 °F 92.2 °F 66.2 °F 46% 30.04 in - SE 5.8 mph - N/A   Clear
3:55 PM 87.8 °F 89.4 °F 64.4 °F 46% 30.03 in - ESE 5.8 mph - N/A   Clear
4:15 PM 86.0 °F 88.2 °F 66.2 °F 51% 30.03 in - ESE 4.6 mph - N/A   Scattered Clouds
4:35 PM 87.8 °F 89.4 °F 64.4 °F 46% 30.03 in - South 3.5 mph - N/A   Scattered Clouds
4:55 PM 87.8 °F 90.4 °F 66.2 °F 49% 30.02 in - East 3.5 mph - N/A   Clear
5:15 PM 87.8 °F 91.4 °F 68.0 °F 52% 30.02 in - East 9.2 mph - N/A   Mostly Cloudy
5:35 PM 86.0 °F 89.4 °F 68.0 °F 55% 30.02 in - East 4.6 mph - N/A   Overcast
5:55 PM 84.2 °F 87.3 °F 68.0 °F 58% 30.02 in - NE 4.6 mph - N/A   Scattered Clouds
6:15 PM 82.4 °F 85.4 °F 68.0 °F 62% 30.03 in - ENE 3.5 mph - N/A   Clear
6:35 PM 82.4 °F 85.4 °F 68.0 °F 62% 30.03 in - Calm Calm - N/A   Clear
6:55 PM 80.6 °F 83.2 °F 68.0 °F 65% 30.03 in - ENE 3.5 mph - N/A   Scattered Clouds
7:15 PM 78.8 °F - 68.0 °F 69% 30.03 in - ENE 3.5 mph - N/A   Scattered Clouds
7:35 PM 78.8 °F - 69.8 °F 74% 30.03 in - NE 3.5 mph - N/A   Clear
7:55 PM 78.8 °F - 69.8 °F 74% 30.03 in - ENE 4.6 mph - N/A   Clear
8:15 PM 77.0 °F - 69.8 °F 78% 30.03 in - East 4.6 mph - N/A   Clear
8:35 PM 77.0 °F - 69.8 °F 78% 30.03 in - ENE 4.6 mph - N/A   Clear
8:55 PM 77.0 °F - 69.8 °F 78% 30.03 in - NE 3.5 mph - N/A   Clear
9:15 PM 75.2 °F - 69.8 °F 83% 30.03 in - East 3.5 mph - N/A   Clear
9:35 PM 75.2 °F - 69.8 °F 83% 30.03 in - NE 3.5 mph - N/A   Clear
9:55 PM 73.4 °F - 69.8 °F 88% 30.03 in - Calm Calm - N/A   Unknown
10:15 PM 73.4 °F - 69.8 °F 88% 30.03 in - Calm Calm - N/A   Unknown
10:35 PM 73.4 °F - 69.8 °F 88% 30.03 in - Calm Calm - N/A   Unknown
10:55 PM 71.6 °F - 69.8 °F 94% 30.03 in - Calm Calm - N/A   Unknown
11:15 PM 71.6 °F - 69.8 °F 94% 30.03 in - Calm Calm - N/A   Unknown
11:35 PM 71.6 °F - 69.8 °F 94% 30.02 in - Calm Calm - N/A   Unknown
11:55 PM 71.6 °F - 69.8 °F 94% 30.02 in - Calm Calm - N/A   Unknown